If you wish to contribute or participate in the discussions about articles you are invited to join SKYbrary as a registered user

 Actions

Hunter Army Airfield

From SKYbrary Wiki

KSVN
Airport
ICAO: KSVN – IATA: SVN
Summary
Name Hunter Army Airfield
Region North America
Territory United States US.gif
Location Savannah, Georgia
Serving Savannah
Elevation 12.802 m
42 ft
42 ft12.802 m
Coordinates 32° 0' 40.58" N, 81° 8' 47.29" W
Runways
Designator Length Width Surface ROPS
10/28 3467 m11,374.672 ft
61 m200.131 ft
ASP yes/yes


METAR
Observation KSVN 120556Z AUTO 29003KT 10SM CLR 24/22 A2995 RMK AO2 SLP145 T02400219 10283 20240 57011 $
Station Hunter U. S. Army Airfield
Date/Time 12 August 2020 05:56:00
Wind direction 290°
Wind speed 03 kts
Lowest cloud amount n/a
Temperature 24°C
Dew point 21.9°C
Humidity 88%
QNH hPa
Weather condition n/a

WX
Tag(s) Cumulonimbus
Tropical Revolving Storm

Hunter Army Airfield/Savannah

ICAO: KSVN IATA: SVN

Description

Hunter Army Airfield, located in Savannah, Georgia, United States, is a military airfield and subordinate installation to Fort Stewart located in Hinesville, Georgia.

Climatology

Humid “subtropical” climate (Köppen climate classification Cfa) - characterized by hot, humid summers and cool winters. Significant amounts of precipitation occur in all seasons in most areas.

Maps

Terrain

Loading map...

Airport Layout

Loading map...


Accidents & Serious Incidents at or in vicinity of KSVN

None on SKYbrary